Hourly Data Report for May 22, 2012

All times are specified in Local Standard Time (LST). Add 1 hour to adjust for Daylight Saving Time where and when it is observed.

OTTAWA INTL A
ONTARIO

45°19'00.000" N
75°40'00.000" W
114.90 m
6106001
71628
YOW

Download Data

Hourly Data (May 2012)
Hourly Data Report for May 22, 2012
Temp Definition
°C
Dew Point Temp Definition
°C
Rel Hum Definition
%
Wind Dir Definition
10's deg

Wind Spd Definition
km/h
Visibility Definition
km
Stn Press Definition
kPa
Hmdx Definition


Wind Chill Definition


Weather Definition


TIME
00:00 Legend Double Dagger 18.6 16.3 86 17 10 10.0 100.05     LegendNANA
01:00 Legend Double Dagger 18.3 16.1 87 18 8 10.0 100.01     Mostly Cloudy
02:00 Legend Double Dagger 18.0 16.2 89 18 8 10.0 99.96     LegendNANA
03:00 Legend Double Dagger 17.4 16.1 92 17 5 10.0 99.94     LegendNANA
04:00 Legend Double Dagger 17.8 16.3 91   0 10.0 99.93     Rain Showers
05:00 Legend Double Dagger 17.4 16.8 96 19 8 10.0 99.93     Rain Showers
06:00 Legend Double Dagger 17.3 17.0 98 16 5 10.0 99.94     LegendNANA
07:00 Legend Double Dagger 18.2 17.6 96 20 5 10.0 99.94     Mostly Cloudy
08:00 Legend Double Dagger 19.1 17.5 90 19 9 10.0 99.93     LegendNANA
09:00 Legend Double Dagger 19.9 17.7 87 27 9 10.0 99.93     LegendNANA
10:00 Legend Double Dagger 20.4 17.1 81 32 5 10.0 99.93 26   Mostly Cloudy
11:00 Legend Double Dagger 20.1 17.9 87 9 8 10.0 99.89 26   LegendNANA
12:00 Legend Double Dagger 19.6 18.1 91   0 10.0 99.84     Rain
13:00 Legend Double Dagger 19.6 18.5 93 34 12 10.0 99.83     Rain
14:00 Legend Double Dagger 18.4 17.3 93 32 12 10.0 99.82     Rain
15:00 Legend Double Dagger 19.9 18.1 89 33 11 10.0 99.80     Rain
16:00 Legend Double Dagger 22.0 18.3 79 2 15 10.0 99.77 28   Mostly Cloudy
17:00 Legend Double Dagger 21.0 17.3 79 2 11 10.0 99.77 26   LegendNANA
18:00 Legend Double Dagger 20.4 15.9 75 1 13 10.0 99.80 25   LegendNANA
19:00 Legend Double Dagger 19.4 16.7 84 0 12 10.0 99.82     Mostly Cloudy
20:00 Legend Double Dagger 18.9 15.2 79 1 10 10.0 99.85     LegendNANA
21:00 Legend Double Dagger 18.0 14.4 79 36 9 0.0 99.90     LegendNANA
22:00 Legend Double Dagger 17.3 13.9 80 1 12 10.0 99.92     Cloudy
23:00 Legend Double Dagger 17.2 14.3 83 1 9 10.0 99.94     LegendNANA

Notes on Data Quality.

Legend

  • E = Estimated
  • M = Missing
  • NA = Not Available
  • ‡ = Partner data that is not subject to review by the National Climate Archives
Date modified: